Time,TemperatureF,DewpointF,PressureIn,WindDirection,WindDirectionDegrees,WindSpeedMPH,WindSpeedGustMPH,Humidity,HourlyPrecipIn,Conditions,Clouds,dailyrainin,SoftwareType,DateUTC
2013-03-08 00:00:00,20.4,19.4,29.92,NW,309,0.0,0.0,96,0.00,,,0.12,WeatherCatV1.02B3,2013-03-08 05:00:00,
2013-03-08 00:05:00,19.8,18.8,29.92,NW,307,0.0,0.0,96,0.00,,,0.00,WeatherCatV1.02B3,2013-03-08 05:05:00,
2013-03-08 00:10:00,19.3,18.1,29.92,NW,308,0.0,0.0,95,0.00,,,0.00,WeatherCatV1.02B3,2013-03-08 05:10:00,
2013-03-08 00:15:00,19.0,17.8,29.92,NW,308,0.0,0.0,95,0.00,,,0.00,WeatherCatV1.02B3,2013-03-08 05:15:00,
2013-03-08 00:20:00,18.6,17.4,29.92,NW,309,0.0,0.0,95,0.00,,,0.00,WeatherCatV1.02B3,2013-03-08 05:20:00,
2013-03-08 00:25:00,18.6,17.7,29.92,NW,309,0.0,0.0,96,0.00,,,0.00,WeatherCatV1.02B3,2013-03-08 05:25:00,
2013-03-08 00:30:00,19.3,18.6,29.92,NW,309,0.0,0.0,97,0.00,,,0.00,WeatherCatV1.02B3,2013-03-08 05:30:00,
2013-03-08 00:32:00,19.4,18.7,29.92,NW,309,0.0,0.0,97,0.00,,,0.00,WeatherCatV1.02B3,2013-03-08 05:32:00,
2013-03-08 00:37:00,19.3,18.4,29.92,NW,309,0.0,0.0,96,0.00,,,0.00,WeatherCatV1.02B3,2013-03-08 05:37:00,
2013-03-08 00:42:00,19.1,18.2,29.92,NW,309,0.0,0.0,96,0.00,,,0.00,WeatherCatV1.02B3,2013-03-08 05:42:00,
2013-03-08 00:47:00,18.9,18.0,29.92,NW,309,0.0,0.0,96,0.00,,,0.00,WeatherCatV1.02B3,2013-03-08 05:47:00,
2013-03-08 00:52:00,18.6,17.7,29.93,NW,308,0.0,0.0,96,0.00,,,0.00,WeatherCatV1.02B3,2013-03-08 05:52:00,
2013-03-08 00:57:00,18.3,17.1,29.92,NW,309,0.0,0.0,95,0.00,,,0.00,WeatherCatV1.02B3,2013-03-08 05:57:00,
2013-03-08 01:02:00,18.3,17.4,29.92,NW,309,0.0,0.0,96,0.00,,,0.00,WeatherCatV1.02B3,2013-03-08 06:02:00,
2013-03-08 01:07:00,18.4,17.5,29.92,NW,307,0.0,0.0,96,0.00,,,0.00,WeatherCatV1.02B3,2013-03-08 06:07:00,
2013-03-08 01:12:00,18.9,18.2,29.92,NW,309,0.0,0.0,97,0.00,,,0.00,WeatherCatV1.02B3,2013-03-08 06:12:00,
2013-03-08 01:17:00,19.5,18.8,29.92,NW,309,0.0,0.0,97,0.00,,,0.00,WeatherCatV1.02B3,2013-03-08 06:17:00,
2013-03-08 01:22:00,19.8,19.1,29.92,NW,309,0.0,0.0,97,0.00,,,0.00,WeatherCatV1.02B3,2013-03-08 06:22:00,
2013-03-08 01:27:00,20.0,19.3,29.93,NW,309,0.0,0.0,97,0.00,,,0.00,WeatherCatV1.02B3,2013-03-08 06:27:00,
2013-03-08 01:32:00,19.6,18.6,29.93,NW,309,0.0,0.0,96,0.00,,,0.00,WeatherCatV1.02B3,2013-03-08 06:32:00,
2013-03-08 01:37:00,19.3,18.4,29.93,NW,309,0.0,0.0,96,0.00,,,0.00,WeatherCatV1.02B3,2013-03-08 06:37:00,
2013-03-08 01:42:00,20.0,19.3,29.93,NW,309,0.0,0.0,97,0.00,,,0.00,WeatherCatV1.02B3,2013-03-08 06:42:00,
2013-03-08 01:47:00,20.3,19.6,29.93,NW,309,0.0,0.0,97,0.00,,,0.00,WeatherCatV1.02B3,2013-03-08 06:47:00,
2013-03-08 01:52:00,20.3,19.6,29.93,NW,309,0.0,0.0,97,0.00,,,0.00,WeatherCatV1.02B3,2013-03-08 06:52:00,
2013-03-08 01:57:00,20.1,19.1,29.93,NW,309,0.0,0.0,96,0.00,,,0.00,WeatherCatV1.02B3,2013-03-08 06:57:00,
2013-03-08 02:02:00,19.9,18.9,29.93,NW,309,0.0,0.0,96,0.00,,,0.00,WeatherCatV1.02B3,2013-03-08 07:02:00,
2013-03-08 02:07:00,19.2,17.8,29.93,NW,309,0.0,0.0,94,0.00,,,0.00,WeatherCatV1.02B3,2013-03-08 07:07:00,
2013-03-08 02:12:00,18.5,17.1,29.93,NW,309,0.0,0.0,94,0.00,,,0.00,WeatherCatV1.02B3,2013-03-08 07:12:00,
2013-03-08 02:17:00,18.1,16.9,29.94,NW,309,0.0,0.0,95,0.00,,,0.00,WeatherCatV1.02B3,2013-03-08 07:17:00,
2013-03-08 02:22:00,17.9,16.7,29.94,NW,309,0.0,0.0,95,0.00,,,0.00,WeatherCatV1.02B3,2013-03-08 07:22:00,
2013-03-08 02:27:00,17.6,16.4,29.94,NW,309,0.0,0.0,95,0.00,,,0.00,WeatherCatV1.02B3,2013-03-08 07:27:00,
2013-03-08 02:32:00,17.1,15.7,29.94,NW,309,0.0,0.0,94,0.00,,,0.00,WeatherCatV1.02B3,2013-03-08 07:32:00,
2013-03-08 02:37:00,16.8,15.4,29.94,NW,309,0.0,0.0,94,0.00,,,0.00,WeatherCatV1.02B3,2013-03-08 07:37:00,
2013-03-08 02:42:00,16.4,15.0,29.94,NW,309,0.0,0.0,94,0.00,,,0.00,WeatherCatV1.02B3,2013-03-08 07:42:00,
2013-03-08 02:47:00,16.4,15.2,29.94,NW,309,0.0,0.0,95,0.00,,,0.00,WeatherCatV1.02B3,2013-03-08 07:47:00,
2013-03-08 02:52:00,16.5,15.3,29.94,NW,309,0.0,0.0,95,0.00,,,0.00,WeatherCatV1.02B3,2013-03-08 07:52:00,
2013-03-08 02:57:00,16.8,15.9,29.94,NW,309,0.0,0.0,96,0.00,,,0.00,WeatherCatV1.02B3,2013-03-08 07:57:00,
2013-03-08 03:02:00,16.5,15.3,29.94,NW,309,0.0,0.0,95,0.00,,,0.00,WeatherCatV1.02B3,2013-03-08 08:02:00,
2013-03-08 03:07:00,16.3,15.1,29.95,NW,309,0.0,0.0,95,0.00,,,0.00,WeatherCatV1.02B3,2013-03-08 08:07:00,
2013-03-08 03:12:00,16.5,15.6,29.95,NW,309,0.0,0.0,96,0.00,,,0.00,WeatherCatV1.02B3,2013-03-08 08:12:00,
2013-03-08 03:17:00,16.2,15.0,29.95,NW,309,0.0,0.0,95,0.00,,,0.00,WeatherCatV1.02B3,2013-03-08 08:17:00,
2013-03-08 03:22:00,16.0,14.8,29.95,NW,309,0.0,0.0,95,0.00,,,0.00,WeatherCatV1.02B3,2013-03-08 08:22:00,
2013-03-08 03:27:00,15.7,14.5,29.95,NW,309,0.0,0.0,95,0.00,,,0.00,WeatherCatV1.02B3,2013-03-08 08:27:00,
2013-03-08 03:32:00,15.5,14.3,29.95,NW,309,0.0,0.0,95,0.00,,,0.00,WeatherCatV1.02B3,2013-03-08 08:32:00,
2013-03-08 03:37:00,15.3,14.1,29.95,NW,309,0.0,0.0,95,0.00,,,0.00,WeatherCatV1.02B3,2013-03-08 08:37:00,
2013-03-08 03:42:00,15.4,14.2,29.95,NW,309,0.0,0.0,95,0.00,,,0.00,WeatherCatV1.02B3,2013-03-08 08:42:00,
2013-03-08 03:47:00,15.3,14.1,29.95,NW,309,0.0,0.0,95,0.00,,,0.00,WeatherCatV1.02B3,2013-03-08 08:47:00,
2013-03-08 03:52:00,15.2,14.0,29.95,NW,309,0.0,0.0,95,0.00,,,0.00,WeatherCatV1.02B3,2013-03-08 08:52:00,
2013-03-08 03:57:00,15.2,14.0,29.95,NW,309,0.0,0.0,95,0.00,,,0.00,WeatherCatV1.02B3,2013-03-08 08:57:00,
2013-03-08 04:02:00,14.9,13.5,29.95,NW,309,0.0,0.0,94,0.00,,,0.00,WeatherCatV1.02B3,2013-03-08 09:02:00,
2013-03-08 04:07:00,14.9,13.7,29.95,NW,309,0.0,0.0,95,0.00,,,0.00,WeatherCatV1.02B3,2013-03-08 09:07:00,
2013-03-08 04:12:00,15.2,14.0,29.94,NW,309,0.0,0.0,95,0.00,,,0.00,WeatherCatV1.02B3,2013-03-08 09:12:00,
2013-03-08 04:17:00,15.2,14.0,29.94,NW,309,0.0,0.0,95,0.00,,,0.00,WeatherCatV1.02B3,2013-03-08 09:17:00,
2013-03-08 04:22:00,15.3,14.1,29.94,NW,309,0.0,0.0,95,0.00,,,0.00,WeatherCatV1.02B3,2013-03-08 09:22:00,
2013-03-08 04:27:00,15.2,14.0,29.94,NW,309,0.0,0.0,95,0.00,,,0.00,WeatherCatV1.02B3,2013-03-08 09:27:00,
2013-03-08 04:32:00,14.8,13.4,29.94,NW,309,0.0,0.0,94,0.00,,,0.00,WeatherCatV1.02B3,2013-03-08 09:32:00,
2013-03-08 04:37:00,14.6,13.2,29.94,NW,309,0.0,0.0,94,0.00,,,0.00,WeatherCatV1.02B3,2013-03-08 09:37:00,
2013-03-08 04:42:00,14.2,12.8,29.94,NW,309,0.0,0.0,94,0.00,,,0.00,WeatherCatV1.02B3,2013-03-08 09:42:00,
2013-03-08 04:47:00,14.3,12.9,29.95,NW,309,0.0,0.0,94,0.00,,,0.00,WeatherCatV1.02B3,2013-03-08 09:47:00,
2013-03-08 04:52:00,14.2,12.8,29.95,NW,309,0.0,0.0,94,0.00,,,0.00,WeatherCatV1.02B3,2013-03-08 09:52:00,
2013-03-08 04:57:00,14.3,13.1,29.95,NW,309,0.0,0.0,95,0.00,,,0.00,WeatherCatV1.02B3,2013-03-08 09:57:00,
2013-03-08 05:02:00,14.2,13.0,29.96,NW,309,0.0,0.0,95,0.00,,,0.00,WeatherCatV1.02B3,2013-03-08 10:02:00,
2013-03-08 05:07:00,13.9,12.5,29.96,NW,309,0.0,0.0,94,0.00,,,0.00,WeatherCatV1.02B3,2013-03-08 10:07:00,
2013-03-08 05:12:00,13.7,12.3,29.96,NW,309,0.0,0.0,94,0.00,,,0.00,WeatherCatV1.02B3,2013-03-08 10:12:00,
2013-03-08 05:17:00,13.8,12.6,29.96,NW,309,0.0,0.0,95,0.00,,,0.00,WeatherCatV1.02B3,2013-03-08 10:17:00,
2013-03-08 05:22:00,14.0,12.8,29.96,NW,309,0.0,0.0,95,0.00,,,0.00,WeatherCatV1.02B3,2013-03-08 10:22:00,
2013-03-08 05:27:00,14.2,13.0,29.96,NW,309,0.0,0.0,95,0.00,,,0.00,WeatherCatV1.02B3,2013-03-08 10:27:00,
2013-03-08 05:32:00,14.4,13.2,29.96,NW,309,0.0,0.0,95,0.00,,,0.00,WeatherCatV1.02B3,2013-03-08 10:32:00,
2013-03-08 05:37:00,14.5,13.3,29.96,NW,309,0.0,0.0,95,0.00,,,0.00,WeatherCatV1.02B3,2013-03-08 10:37:00,
2013-03-08 05:42:00,14.6,13.4,29.96,NW,309,0.0,0.0,95,0.00,,,0.00,WeatherCatV1.02B3,2013-03-08 10:42:00,
2013-03-08 05:47:00,14.4,13.2,29.96,NW,309,0.0,0.0,95,0.00,,,0.00,WeatherCatV1.02B3,2013-03-08 10:47:00,
2013-03-08 05:52:00,14.2,12.8,29.96,NW,309,0.0,0.0,94,0.00,,,0.00,WeatherCatV1.02B3,2013-03-08 10:52:00,
2013-03-08 05:57:00,14.2,13.0,29.96,NW,309,0.0,0.0,95,0.00,,,0.00,WeatherCatV1.02B3,2013-03-08 10:57:00,
2013-03-08 06:02:00,14.1,12.9,29.96,NW,309,0.0,0.0,95,0.00,,,0.00,WeatherCatV1.02B3,2013-03-08 11:02:00,
2013-03-08 06:07:00,13.9,12.5,29.96,NW,309,0.0,0.0,94,0.00,,,0.00,WeatherCatV1.02B3,2013-03-08 11:07:00,
2013-03-08 06:12:00,13.8,12.4,29.97,NW,309,0.0,0.0,94,0.00,,,0.00,WeatherCatV1.02B3,2013-03-08 11:12:00,
2013-03-08 06:17:00,13.6,12.2,29.97,NW,309,0.0,0.0,94,0.00,,,0.00,WeatherCatV1.02B3,2013-03-08 11:17:00,
2013-03-08 06:22:00,13.4,12.0,29.97,NW,309,0.0,0.0,94,0.00,,,0.00,WeatherCatV1.02B3,2013-03-08 11:22:00,
2013-03-08 06:27:00,13.4,12.0,29.97,NW,309,0.0,0.0,94,0.00,,,0.00,WeatherCatV1.02B3,2013-03-08 11:27:00,
2013-03-08 06:32:00,13.3,11.9,29.97,NW,309,0.0,0.0,94,0.00,,,0.00,WeatherCatV1.02B3,2013-03-08 11:32:00,
2013-03-08 06:37:00,12.9,11.3,29.97,NW,309,0.0,0.0,93,0.00,,,0.00,WeatherCatV1.02B3,2013-03-08 11:37:00,
2013-03-08 06:42:00,12.8,11.4,29.97,NW,309,0.0,0.0,94,0.00,,,0.00,WeatherCatV1.02B3,2013-03-08 11:42:00,
2013-03-08 06:47:00,12.9,11.5,29.97,NW,309,0.0,0.0,94,0.00,,,0.00,WeatherCatV1.02B3,2013-03-08 11:47:00,
2013-03-08 06:52:00,12.8,11.4,29.98,NW,309,0.0,0.0,94,0.00,,,0.00,WeatherCatV1.02B3,2013-03-08 11:52:00,
2013-03-08 06:57:00,12.7,11.3,29.97,NW,309,0.0,0.0,94,0.00,,,0.00,WeatherCatV1.02B3,2013-03-08 11:57:00,
2013-03-08 07:02:00,12.3,10.7,29.97,NW,309,0.0,0.0,93,0.00,,,0.00,WeatherCatV1.02B3,2013-03-08 12:02:00,
2013-03-08 07:07:00,12.2,10.6,29.97,NW,309,0.0,0.0,93,0.00,,,0.00,WeatherCatV1.02B3,2013-03-08 12:07:00,
2013-03-08 07:12:00,12.6,11.2,29.97,NW,309,0.0,0.0,94,0.00,,,0.00,WeatherCatV1.02B3,2013-03-08 12:12:00,
2013-03-08 07:17:00,12.7,11.3,29.98,NW,309,0.0,0.0,94,0.00,,,0.00,WeatherCatV1.02B3,2013-03-08 12:17:00,
2013-03-08 07:22:00,12.9,11.7,29.98,NW,309,0.0,0.0,95,0.00,,,0.00,WeatherCatV1.02B3,2013-03-08 12:22:00,
2013-03-08 07:27:00,13.0,11.8,29.98,NW,309,0.0,0.0,95,0.00,,,0.00,WeatherCatV1.02B3,2013-03-08 12:27:00,
2013-03-08 07:32:00,13.0,11.8,29.98,NW,309,0.0,0.0,95,0.00,,,0.00,WeatherCatV1.02B3,2013-03-08 12:32:00,
2013-03-08 07:37:00,13.3,12.1,29.98,NW,309,0.0,0.0,95,0.00,,,0.00,WeatherCatV1.02B3,2013-03-08 12:37:00,
2013-03-08 07:42:00,13.4,12.2,29.98,NW,309,0.0,0.0,95,0.00,,,0.00,WeatherCatV1.02B3,2013-03-08 12:42:00,
2013-03-08 07:47:00,13.3,11.9,29.98,NW,309,0.0,0.0,94,0.00,,,0.00,WeatherCatV1.02B3,2013-03-08 12:47:00,
2013-03-08 07:52:00,13.5,12.3,29.99,NW,309,0.0,0.0,95,0.00,,,0.00,WeatherCatV1.02B3,2013-03-08 12:52:00,
2013-03-08 07:57:00,14.0,12.8,29.99,NW,309,0.0,0.0,95,0.00,,,0.00,WeatherCatV1.02B3,2013-03-08 12:57:00,
2013-03-08 08:02:00,14.3,13.1,29.99,NW,309,0.0,0.0,95,0.00,,,0.00,WeatherCatV1.02B3,2013-03-08 13:02:00,
2013-03-08 08:07:00,15.1,14.2,29.99,NW,309,0.0,0.0,96,0.00,,,0.00,WeatherCatV1.02B3,2013-03-08 13:07:00,
2013-03-08 08:12:00,15.8,14.9,29.99,NW,309,0.0,0.0,96,0.00,,,0.00,WeatherCatV1.02B3,2013-03-08 13:12:00,
2013-03-08 08:17:00,16.2,15.0,29.99,NW,309,0.0,0.0,95,0.00,,,0.00,WeatherCatV1.02B3,2013-03-08 13:17:00,
2013-03-08 08:22:00,16.5,15.3,29.99,NW,309,0.0,0.0,95,0.00,,,0.00,WeatherCatV1.02B3,2013-03-08 13:22:00,
2013-03-08 08:27:00,16.9,15.7,29.99,NW,309,0.0,0.0,95,0.00,,,0.00,WeatherCatV1.02B3,2013-03-08 13:27:00,
2013-03-08 08:32:00,17.3,16.1,29.99,NW,309,0.0,0.0,95,0.00,,,0.00,WeatherCatV1.02B3,2013-03-08 13:32:00,
2013-03-08 08:37:00,18.1,17.2,30.00,NW,309,0.0,0.0,96,0.00,,,0.00,WeatherCatV1.02B3,2013-03-08 13:37:00,
2013-03-08 08:42:00,18.8,17.9,30.00,NW,309,0.0,0.0,96,0.00,,,0.00,WeatherCatV1.02B3,2013-03-08 13:42:00,
2013-03-08 08:47:00,19.7,18.7,30.00,NW,309,0.0,0.0,96,0.00,,,0.00,WeatherCatV1.02B3,2013-03-08 13:47:00,
2013-03-08 08:52:00,21.8,21.1,30.00,NW,309,0.0,0.0,97,0.00,,,0.00,WeatherCatV1.02B3,2013-03-08 13:52:00,
2013-03-08 08:57:00,24.2,23.7,29.99,NW,309,0.0,0.0,98,0.00,,,0.00,WeatherCatV1.02B3,2013-03-08 13:57:00,
2013-03-08 09:02:00,25.7,25.2,29.99,NW,309,0.0,0.0,98,0.00,,,0.00,WeatherCatV1.02B3,2013-03-08 14:02:00,
2013-03-08 09:07:00,26.9,26.4,30.00,NW,309,0.0,0.0,98,0.00,,,0.00,WeatherCatV1.02B3,2013-03-08 14:07:00,
2013-03-08 09:12:00,27.8,27.1,30.00,NW,309,0.0,0.0,97,0.00,,,0.00,WeatherCatV1.02B3,2013-03-08 14:12:00,
2013-03-08 09:17:00,29.0,28.0,30.00,NW,309,0.0,0.0,96,0.00,,,0.00,WeatherCatV1.02B3,2013-03-08 14:17:00,
2013-03-08 09:22:00,30.5,29.8,30.00,NW,309,0.0,0.0,97,0.00,,,0.00,WeatherCatV1.02B3,2013-03-08 14:22:00,
2013-03-08 09:27:00,29.3,27.3,30.00,NE,53,0.0,1.0,92,0.00,,,0.00,WeatherCatV1.02B3,2013-03-08 14:27:00,
2013-03-08 09:32:00,29.0,27.0,30.00,NE,53,0.0,1.0,92,0.00,,,0.00,WeatherCatV1.02B3,2013-03-08 14:32:00,
2013-03-08 09:37:00,29.4,27.1,30.00,NE,54,0.0,1.0,91,0.00,,,0.00,WeatherCatV1.02B3,2013-03-08 14:37:00,
2013-03-08 09:42:00,30.1,27.5,30.00,ENE,67,0.0,0.0,90,0.00,,,0.00,WeatherCatV1.02B3,2013-03-08 14:42:00,
2013-03-08 09:47:00,31.0,27.6,29.99,ENE,66,0.0,0.0,87,0.00,,,0.00,WeatherCatV1.02B3,2013-03-08 14:47:00,
2013-03-08 09:52:00,31.0,26.2,29.99,ENE,66,0.0,0.0,82,0.00,,,0.00,WeatherCatV1.02B3,2013-03-08 14:52:00,
2013-03-08 09:57:00,30.5,25.4,30.00,NE,54,2.0,3.0,81,0.00,,,0.00,WeatherCatV1.02B3,2013-03-08 14:57:00,
2013-03-08 10:02:00,30.2,24.8,29.99,ENE,58,2.0,3.0,80,0.00,,,0.00,WeatherCatV1.02B3,2013-03-08 15:02:00,
2013-03-08 10:07:00,30.3,24.9,30.00,ENE,68,2.0,2.0,80,0.00,,,0.00,WeatherCatV1.02B3,2013-03-08 15:07:00,
2013-03-08 10:12:00,30.7,25.0,30.00,ENE,61,1.0,1.0,79,0.00,,,0.00,WeatherCatV1.02B3,2013-03-08 15:12:00,
2013-03-08 10:17:00,31.2,25.2,30.00,NE,46,1.0,2.0,78,0.00,,,0.00,WeatherCatV1.02B3,2013-03-08 15:17:00,
2013-03-08 10:22:00,31.4,25.0,30.00,ENE,57,1.0,2.0,77,0.00,,,0.00,WeatherCatV1.02B3,2013-03-08 15:22:00,
2013-03-08 10:27:00,31.6,24.9,30.00,ENE,61,1.0,2.0,76,0.00,,,0.00,WeatherCatV1.02B3,2013-03-08 15:27:00,
2013-03-08 10:32:00,32.3,25.9,29.99,East,100,0.0,0.0,77,0.00,,,0.00,WeatherCatV1.02B3,2013-03-08 15:32:00,
2013-03-08 10:37:00,34.1,26.4,29.99,SE,140,0.0,0.0,73,0.00,,,0.00,WeatherCatV1.02B3,2013-03-08 15:37:00,
2013-03-08 10:42:00,35.4,26.3,29.99,East,85,0.0,1.0,69,0.00,,,0.00,WeatherCatV1.02B3,2013-03-08 15:42:00,
2013-03-08 10:47:00,35.9,26.0,29.99,ESE,102,2.0,2.0,67,0.00,,,0.00,WeatherCatV1.02B3,2013-03-08 15:47:00,
2013-03-08 10:52:00,36.3,26.4,29.99,SE,127,0.0,0.0,67,0.00,,,0.00,WeatherCatV1.02B3,2013-03-08 15:52:00,
2013-03-08 10:57:00,37.7,28.8,29.99,ESE,118,1.0,1.0,70,0.00,,,0.00,WeatherCatV1.02B3,2013-03-08 15:57:00,
2013-03-08 11:02:00,37.7,28.5,29.99,ESE,122,0.0,0.0,69,0.00,,,0.00,WeatherCatV1.02B3,2013-03-08 16:02:00,
2013-03-08 11:07:00,37.6,28.0,29.99,ESE,122,1.0,1.0,68,0.00,,,0.00,WeatherCatV1.02B3,2013-03-08 16:07:00,
2013-03-08 11:12:00,37.0,27.8,29.99,ENE,77,0.0,3.0,69,0.00,,,0.00,WeatherCatV1.02B3,2013-03-08 16:12:00,
2013-03-08 11:17:00,36.9,28.0,29.99,SE,131,1.0,2.0,70,0.00,,,0.00,WeatherCatV1.02B3,2013-03-08 16:17:00,
2013-03-08 11:22:00,37.2,29.4,29.99,WNW,303,0.0,3.0,73,0.00,,,0.00,WeatherCatV1.02B3,2013-03-08 16:22:00,
2013-03-08 11:27:00,37.5,29.0,29.99,SE,138,0.0,1.0,71,0.00,,,0.00,WeatherCatV1.02B3,2013-03-08 16:27:00,
2013-03-08 11:32:00,37.9,29.0,29.99,ESE,121,1.0,4.0,70,0.00,,,0.00,WeatherCatV1.02B3,2013-03-08 16:32:00,
2013-03-08 11:37:00,38.2,28.6,29.99,NE,40,3.0,3.0,68,0.00,,,0.00,WeatherCatV1.02B3,2013-03-08 16:37:00,
2013-03-08 11:42:00,38.0,28.0,29.99,SE,141,0.0,1.0,67,0.00,,,0.00,WeatherCatV1.02B3,2013-03-08 16:42:00,
2013-03-08 11:47:00,38.2,28.2,29.99,ESE,105,1.0,3.0,67,0.00,,,0.00,WeatherCatV1.02B3,2013-03-08 16:47:00,
2013-03-08 11:52:00,38.0,28.0,29.98,ESE,115,1.0,3.0,67,0.00,,,0.00,WeatherCatV1.02B3,2013-03-08 16:52:00,
2013-03-08 11:57:00,38.4,28.4,29.98,ESE,117,1.0,2.0,67,0.00,,,0.00,WeatherCatV1.02B3,2013-03-08 16:57:00,
2013-03-08 12:02:00,38.7,28.7,29.98,ESE,112,1.0,1.0,67,0.00,,,0.00,WeatherCatV1.02B3,2013-03-08 17:02:00,
2013-03-08 12:07:00,38.9,28.5,29.98,East,99,1.0,1.0,66,0.00,,,0.00,WeatherCatV1.02B3,2013-03-08 17:07:00,
2013-03-08 12:12:00,39.2,28.4,29.98,SE,135,0.0,2.0,65,0.00,,,0.00,WeatherCatV1.02B3,2013-03-08 17:12:00,
2013-03-08 12:17:00,39.4,28.6,29.98,ESE,110,1.0,2.0,65,0.00,,,0.00,WeatherCatV1.02B3,2013-03-08 17:17:00,
2013-03-08 12:22:00,39.3,28.2,29.98,ESE,115,1.0,2.0,64,0.00,,,0.00,WeatherCatV1.02B3,2013-03-08 17:22:00,
2013-03-08 12:27:00,40.0,29.6,29.98,SE,131,1.0,1.0,66,0.00,,,0.00,WeatherCatV1.02B3,2013-03-08 17:27:00,
2013-03-08 12:32:00,40.8,29.6,29.97,SE,133,1.0,2.0,64,0.00,,,0.00,WeatherCatV1.02B3,2013-03-08 17:32:00,
2013-03-08 12:37:00,40.8,29.2,29.97,ESE,115,0.0,1.0,63,0.00,,,0.00,WeatherCatV1.02B3,2013-03-08 17:37:00,
2013-03-08 12:42:00,40.9,29.7,29.97,ESE,117,1.0,1.0,64,0.00,,,0.00,WeatherCatV1.02B3,2013-03-08 17:42:00,
2013-03-08 12:47:00,41.1,29.9,29.96,ESE,110,0.0,2.0,64,0.00,,,0.00,WeatherCatV1.02B3,2013-03-08 17:47:00,
2013-03-08 12:52:00,40.8,29.2,29.96,SE,124,0.0,2.0,63,0.00,,,0.00,WeatherCatV1.02B3,2013-03-08 17:52:00,
2013-03-08 12:57:00,40.9,29.3,29.96,ESE,105,1.0,2.0,63,0.00,,,0.00,WeatherCatV1.02B3,2013-03-08 17:57:00,
2013-03-08 13:01:00,41.0,29.8,29.96,East,91,1.0,2.0,64,0.00,,,0.00,WeatherCatV1.02B3,2013-03-08 18:01:00,
2013-03-08 13:06:00,41.4,29.8,29.96,East,98,1.0,2.0,63,0.00,,,0.00,WeatherCatV1.02B3,2013-03-08 18:06:00,
2013-03-08 13:11:00,41.5,29.1,29.96,ESE,102,1.0,3.0,61,0.00,,,0.00,WeatherCatV1.02B3,2013-03-08 18:11:00,
2013-03-08 13:16:00,41.5,29.9,29.96,ESE,115,1.0,2.0,63,0.00,,,0.00,WeatherCatV1.02B3,2013-03-08 18:16:00,
2013-03-08 13:21:00,41.5,30.2,29.96,ENE,76,0.0,2.0,64,0.00,,,0.00,WeatherCatV1.02B3,2013-03-08 18:21:00,
2013-03-08 13:26:00,41.4,28.2,29.96,ESE,121,1.0,4.0,59,0.00,,,0.00,WeatherCatV1.02B3,2013-03-08 18:26:00,
2013-03-08 13:31:00,41.4,29.8,29.96,ESE,123,1.0,1.0,63,0.00,,,0.00,WeatherCatV1.02B3,2013-03-08 18:31:00,
2013-03-08 13:36:00,41.5,29.5,29.95,East,79,0.0,1.0,62,0.00,,,0.00,WeatherCatV1.02B3,2013-03-08 18:36:00,
2013-03-08 13:41:00,41.9,29.4,29.95,SE,134,0.0,2.0,61,0.00,,,0.00,WeatherCatV1.02B3,2013-03-08 18:41:00,
2013-03-08 13:46:00,42.8,29.5,29.95,SE,134,1.0,2.0,59,0.00,,,0.00,WeatherCatV1.02B3,2013-03-08 18:46:00,
2013-03-08 13:51:00,42.9,31.2,29.95,SE,146,0.0,0.0,63,0.00,,,0.00,WeatherCatV1.02B3,2013-03-08 18:51:00,
2013-03-08 13:56:00,42.9,29.6,29.94,SE,125,1.0,2.0,59,0.00,,,0.00,WeatherCatV1.02B3,2013-03-08 18:56:00,
2013-03-08 14:01:00,42.8,30.3,29.94,SE,124,0.0,1.0,61,0.00,,,0.00,WeatherCatV1.02B3,2013-03-08 19:01:00,
2013-03-08 14:06:00,42.9,30.4,29.94,East,87,1.0,1.0,61,0.00,,,0.00,WeatherCatV1.02B3,2013-03-08 19:06:00,
2013-03-08 14:11:00,42.6,29.3,29.94,ESE,103,1.0,2.0,59,0.00,,,0.00,WeatherCatV1.02B3,2013-03-08 19:11:00,
2013-03-08 14:16:00,42.5,27.0,29.93,ESE,116,0.0,3.0,54,0.00,,,0.00,WeatherCatV1.02B3,2013-03-08 19:16:00,
2013-03-08 14:21:00,42.9,28.3,29.93,ESE,113,2.0,2.0,56,0.00,,,0.00,WeatherCatV1.02B3,2013-03-08 19:21:00,
2013-03-08 14:26:00,43.3,28.7,29.93,ESE,116,0.0,1.0,56,0.00,,,0.00,WeatherCatV1.02B3,2013-03-08 19:26:00,
2013-03-08 14:31:00,44.1,29.0,29.93,SE,135,1.0,1.0,55,0.00,,,0.00,WeatherCatV1.02B3,2013-03-08 19:31:00,
2013-03-08 14:36:00,44.0,28.9,29.93,WNW,302,2.0,3.0,55,0.00,,,0.00,WeatherCatV1.02B3,2013-03-08 19:36:00,
2013-03-08 14:41:00,43.6,26.2,29.92,SW,232,0.0,2.0,50,0.00,,,0.00,WeatherCatV1.02B3,2013-03-08 19:41:00,
2013-03-08 14:46:00,42.9,26.5,29.92,SSE,159,0.0,1.0,52,0.00,,,0.00,WeatherCatV1.02B3,2013-03-08 19:46:00,
2013-03-08 14:51:00,43.3,26.9,29.92,SE,139,1.0,2.0,52,0.00,,,0.00,WeatherCatV1.02B3,2013-03-08 19:51:00,
2013-03-08 14:56:00,44.0,26.1,29.92,SE,134,1.0,2.0,49,0.00,,,0.00,WeatherCatV1.02B3,2013-03-08 19:56:00,
2013-03-08 15:01:00,43.9,26.5,29.92,SW,216,2.0,2.0,50,0.00,,,0.00,WeatherCatV1.02B3,2013-03-08 20:01:00,
2013-03-08 15:06:00,44.5,27.0,29.92,SSE,155,0.0,2.0,50,0.00,,,0.00,WeatherCatV1.02B3,2013-03-08 20:06:00,
2013-03-08 15:11:00,44.3,26.4,29.92,SSW,211,3.0,4.0,49,0.00,,,0.00,WeatherCatV1.02B3,2013-03-08 20:11:00,
2013-03-08 15:16:00,43.1,26.2,29.92,WNW,290,1.0,2.0,51,0.00,,,0.00,WeatherCatV1.02B3,2013-03-08 20:16:00,
2013-03-08 15:21:00,43.6,28.1,29.92,SE,135,0.0,1.0,54,0.00,,,0.00,WeatherCatV1.02B3,2013-03-08 20:21:00,
2013-03-08 15:26:00,43.8,27.3,29.92,SE,124,0.0,2.0,52,0.00,,,0.00,WeatherCatV1.02B3,2013-03-08 20:26:00,
2013-03-08 15:31:00,44.0,27.0,29.92,SW,218,0.0,2.0,51,0.00,,,0.00,WeatherCatV1.02B3,2013-03-08 20:31:00,
2013-03-08 15:36:00,44.5,27.0,29.91,ESE,112,0.0,2.0,50,0.00,,,0.00,WeatherCatV1.02B3,2013-03-08 20:36:00,
2013-03-08 15:41:00,44.0,27.5,29.91,SE,137,1.0,1.0,52,0.00,,,0.00,WeatherCatV1.02B3,2013-03-08 20:41:00,
2013-03-08 15:46:00,43.5,27.1,29.91,ESE,120,1.0,1.0,52,0.00,,,0.00,WeatherCatV1.02B3,2013-03-08 20:46:00,
2013-03-08 15:51:00,43.2,27.7,29.91,ESE,120,1.0,1.0,54,0.00,,,0.00,WeatherCatV1.02B3,2013-03-08 20:51:00,
2013-03-08 15:56:00,42.9,27.4,29.91,ESE,119,1.0,1.0,54,0.00,,,0.00,WeatherCatV1.02B3,2013-03-08 20:56:00,
2013-03-08 16:01:00,42.7,27.2,29.91,SE,127,1.0,2.0,54,0.00,,,0.00,WeatherCatV1.02B3,2013-03-08 21:01:00,
2013-03-08 16:06:00,42.4,26.9,29.91,ESE,113,1.0,2.0,54,0.00,,,0.00,WeatherCatV1.02B3,2013-03-08 21:06:00,
2013-03-08 16:11:00,42.4,26.9,29.91,ESE,117,1.0,1.0,54,0.00,,,0.00,WeatherCatV1.02B3,2013-03-08 21:11:00,
2013-03-08 16:16:00,42.5,27.9,29.91,ESE,122,1.0,1.0,56,0.00,,,0.00,WeatherCatV1.02B3,2013-03-08 21:16:00,
2013-03-08 16:21:00,42.5,27.5,29.90,ESE,112,1.0,2.0,55,0.00,,,0.00,WeatherCatV1.02B3,2013-03-08 21:21:00,
2013-03-08 16:26:00,42.2,27.2,29.90,East,98,0.0,3.0,55,0.00,,,0.00,WeatherCatV1.02B3,2013-03-08 21:26:00,
2013-03-08 16:31:00,42.1,27.5,29.90,SE,127,1.0,2.0,56,0.00,,,0.00,WeatherCatV1.02B3,2013-03-08 21:31:00,
2013-03-08 16:36:00,42.0,27.0,29.90,ESE,119,0.0,1.0,55,0.00,,,0.00,WeatherCatV1.02B3,2013-03-08 21:36:00,
2013-03-08 16:41:00,42.1,28.0,29.90,ENE,72,1.0,2.0,57,0.00,,,0.00,WeatherCatV1.02B3,2013-03-08 21:41:00,
2013-03-08 16:46:00,41.9,27.4,29.90,ESE,119,1.0,2.0,56,0.00,,,0.00,WeatherCatV1.02B3,2013-03-08 21:46:00,
2013-03-08 16:51:00,41.5,27.0,29.90,ESE,113,1.0,2.0,56,0.00,,,0.00,WeatherCatV1.02B3,2013-03-08 21:51:00,
2013-03-08 16:56:00,41.3,26.8,29.89,ESE,109,0.0,2.0,56,0.00,,,0.00,WeatherCatV1.02B3,2013-03-08 21:56:00,
2013-03-08 17:01:00,41.1,26.6,29.90,ESE,118,0.0,2.0,56,0.00,,,0.00,WeatherCatV1.02B3,2013-03-08 22:01:00,
2013-03-08 17:06:00,41.0,26.9,29.90,ESE,120,1.0,2.0,57,0.00,,,0.00,WeatherCatV1.02B3,2013-03-08 22:06:00,
2013-03-08 17:11:00,40.9,27.3,29.90,ESE,115,0.0,1.0,58,0.00,,,0.00,WeatherCatV1.02B3,2013-03-08 22:11:00,
2013-03-08 17:16:00,40.8,26.3,29.89,ESE,118,1.0,2.0,56,0.00,,,0.00,WeatherCatV1.02B3,2013-03-08 22:16:00,
2013-03-08 17:21:00,40.6,27.0,29.90,SE,127,1.0,2.0,58,0.00,,,0.00,WeatherCatV1.02B3,2013-03-08 22:21:00,
2013-03-08 17:26:00,40.3,27.5,29.90,SE,143,0.0,2.0,60,0.00,,,0.00,WeatherCatV1.02B3,2013-03-08 22:26:00,
2013-03-08 17:31:00,40.2,26.6,29.89,ESE,109,0.0,1.0,58,0.00,,,0.00,WeatherCatV1.02B3,2013-03-08 22:31:00,
2013-03-08 17:36:00,40.0,26.4,29.90,ESE,110,0.0,1.0,58,0.00,,,0.00,WeatherCatV1.02B3,2013-03-08 22:36:00,
2013-03-08 17:41:00,39.5,26.8,29.90,ESE,110,1.0,1.0,60,0.00,,,0.00,WeatherCatV1.02B3,2013-03-08 22:41:00,
2013-03-08 17:46:00,39.2,26.5,29.89,ESE,114,0.0,1.0,60,0.00,,,0.00,WeatherCatV1.02B3,2013-03-08 22:46:00,
2013-03-08 17:51:00,38.7,26.0,29.89,SE,127,0.0,1.0,60,0.00,,,0.00,WeatherCatV1.02B3,2013-03-08 22:51:00,
2013-03-08 17:56:00,38.5,26.6,29.89,SE,127,0.0,1.0,62,0.00,,,0.00,WeatherCatV1.02B3,2013-03-08 22:56:00,
2013-03-08 18:01:00,38.2,26.0,29.89,SE,125,0.0,1.0,61,0.00,,,0.00,WeatherCatV1.02B3,2013-03-08 23:01:00,
2013-03-08 18:06:00,37.9,26.1,29.89,SE,126,0.0,0.0,62,0.00,,,0.00,WeatherCatV1.02B3,2013-03-08 23:06:00,
2013-03-08 18:11:00,37.8,26.4,29.89,ESE,122,0.0,1.0,63,0.00,,,0.00,WeatherCatV1.02B3,2013-03-08 23:11:00,
2013-03-08 18:16:00,37.5,26.1,29.89,ESE,115,0.0,1.0,63,0.00,,,0.00,WeatherCatV1.02B3,2013-03-08 23:16:00,
2013-03-08 18:21:00,37.2,26.2,29.89,ESE,116,0.0,1.0,64,0.00,,,0.00,WeatherCatV1.02B3,2013-03-08 23:21:00,
2013-03-08 18:26:00,36.9,25.9,29.89,ESE,115,0.0,1.0,64,0.00,,,0.00,WeatherCatV1.02B3,2013-03-08 23:26:00,
2013-03-08 18:31:00,36.5,26.6,29.89,ESE,115,0.0,0.0,67,0.00,,,0.00,WeatherCatV1.02B3,2013-03-08 23:31:00,
2013-03-08 18:36:00,36.0,26.5,29.89,ESE,115,0.0,0.0,68,0.00,,,0.00,WeatherCatV1.02B3,2013-03-08 23:36:00,
2013-03-08 18:41:00,35.5,26.0,29.89,ESE,116,0.0,1.0,68,0.00,,,0.00,WeatherCatV1.02B3,2013-03-08 23:41:00,
2013-03-08 18:46:00,35.0,26.6,29.90,ESE,116,0.0,0.0,71,0.00,,,0.00,WeatherCatV1.02B3,2013-03-08 23:46:00,
2013-03-08 18:51:00,34.4,26.3,29.89,ESE,116,0.0,0.0,72,0.00,,,0.00,WeatherCatV1.02B3,2013-03-08 23:51:00,
2013-03-08 18:56:00,33.9,25.8,29.89,ESE,116,0.0,0.0,72,0.00,,,0.00,WeatherCatV1.02B3,2013-03-08 23:56:00,
2013-03-08 19:01:00,33.3,25.9,29.90,ESE,117,0.0,0.0,74,0.00,,,0.00,WeatherCatV1.02B3,2013-03-09 00:01:00,
2013-03-08 19:06:00,32.9,26.2,29.90,ESE,117,0.0,0.0,76,0.00,,,0.00,WeatherCatV1.02B3,2013-03-09 00:06:00,
2013-03-08 19:11:00,32.5,26.1,29.90,ESE,117,0.0,0.0,77,0.00,,,0.00,WeatherCatV1.02B3,2013-03-09 00:11:00,
2013-03-08 19:16:00,32.1,25.7,29.90,ESE,117,0.0,0.0,77,0.00,,,0.00,WeatherCatV1.02B3,2013-03-09 00:16:00,
2013-03-08 19:21:00,31.7,25.6,29.90,ESE,117,0.0,0.0,78,0.00,,,0.00,WeatherCatV1.02B3,2013-03-09 00:21:00,
2013-03-08 19:26:00,31.4,25.0,29.90,ESE,117,0.0,0.0,77,0.00,,,0.00,WeatherCatV1.02B3,2013-03-09 00:26:00,
2013-03-08 19:31:00,31.1,25.4,29.91,ESE,117,0.0,0.0,79,0.00,,,0.00,WeatherCatV1.02B3,2013-03-09 00:31:00,
2013-03-08 19:36:00,30.9,25.2,29.90,ESE,117,0.0,0.0,79,0.00,,,0.00,WeatherCatV1.02B3,2013-03-09 00:36:00,
2013-03-08 19:41:00,31.2,25.5,29.90,ESE,116,0.0,0.0,79,0.00,,,0.00,WeatherCatV1.02B3,2013-03-09 00:41:00,
2013-03-08 19:46:00,31.3,25.3,29.90,ESE,115,0.0,0.0,78,0.00,,,0.00,WeatherCatV1.02B3,2013-03-09 00:46:00,
2013-03-08 19:51:00,31.1,24.7,29.90,ESE,116,0.0,0.0,77,0.00,,,0.00,WeatherCatV1.02B3,2013-03-09 00:51:00,
2013-03-08 19:56:00,30.6,24.9,29.90,ESE,116,0.0,0.0,79,0.00,,,0.00,WeatherCatV1.02B3,2013-03-09 00:56:00,
2013-03-08 20:01:00,30.5,25.1,29.90,ESE,117,0.0,0.0,80,0.00,,,0.00,WeatherCatV1.02B3,2013-03-09 01:01:00,
2013-03-08 20:06:00,30.4,25.0,29.90,ESE,117,0.0,0.0,80,0.00,,,0.00,WeatherCatV1.02B3,2013-03-09 01:06:00,
2013-03-08 20:11:00,30.6,24.9,29.89,ESE,117,0.0,0.0,79,0.00,,,0.00,WeatherCatV1.02B3,2013-03-09 01:11:00,
2013-03-08 20:16:00,30.5,24.8,29.89,ESE,117,0.0,0.0,79,0.00,,,0.00,WeatherCatV1.02B3,2013-03-09 01:16:00,
2013-03-08 20:21:00,30.1,24.7,29.90,ESE,117,0.0,0.0,80,0.00,,,0.00,WeatherCatV1.02B3,2013-03-09 01:21:00,
2013-03-08 20:26:00,29.7,24.6,29.90,ESE,117,0.0,0.0,81,0.00,,,0.00,WeatherCatV1.02B3,2013-03-09 01:26:00,
2013-03-08 20:31:00,29.7,24.6,29.89,ESE,117,0.0,0.0,81,0.00,,,0.00,WeatherCatV1.02B3,2013-03-09 01:31:00,
2013-03-08 20:36:00,29.6,24.5,29.90,ESE,117,0.0,0.0,81,0.00,,,0.00,WeatherCatV1.02B3,2013-03-09 01:36:00,
2013-03-08 20:41:00,29.5,24.7,29.90,SSE,168,0.0,0.0,82,0.00,,,0.00,WeatherCatV1.02B3,2013-03-09 01:41:00,
2013-03-08 20:46:00,29.6,24.5,29.90,SSE,167,0.0,0.0,81,0.00,,,0.00,WeatherCatV1.02B3,2013-03-09 01:46:00,
2013-03-08 20:51:00,29.1,24.0,29.90,SSE,168,0.0,0.0,81,0.00,,,0.00,WeatherCatV1.02B3,2013-03-09 01:51:00,
2013-03-08 20:56:00,28.6,24.1,29.90,SSE,167,0.0,0.0,83,0.00,,,0.00,WeatherCatV1.02B3,2013-03-09 01:56:00,
2013-03-08 21:01:00,28.2,23.7,29.90,SSE,168,0.0,0.0,83,0.00,,,0.00,WeatherCatV1.02B3,2013-03-09 02:01:00,
2013-03-08 21:06:00,27.7,23.5,29.90,SSE,167,0.0,0.0,84,0.00,,,0.00,WeatherCatV1.02B3,2013-03-09 02:06:00,
2013-03-08 21:11:00,27.1,22.9,29.90,SSE,167,0.0,0.0,84,0.00,,,0.00,WeatherCatV1.02B3,2013-03-09 02:11:00,
2013-03-08 21:16:00,26.7,23.4,29.90,SSE,166,0.0,0.0,87,0.00,,,0.00,WeatherCatV1.02B3,2013-03-09 02:16:00,
2013-03-08 21:21:00,27.5,23.9,29.90,SSE,166,0.0,0.0,86,0.00,,,0.00,WeatherCatV1.02B3,2013-03-09 02:21:00,
2013-03-08 21:26:00,27.9,24.0,29.89,SSE,166,0.0,0.0,85,0.00,,,0.00,WeatherCatV1.02B3,2013-03-09 02:26:00,
2013-03-08 21:31:00,28.0,24.1,29.89,SSE,166,0.0,0.0,85,0.00,,,0.00,WeatherCatV1.02B3,2013-03-09 02:31:00,
2013-03-08 21:36:00,28.1,24.2,29.89,SSE,167,0.0,0.0,85,0.00,,,0.00,WeatherCatV1.02B3,2013-03-09 02:36:00,
2013-03-08 21:41:00,27.8,23.6,29.89,SSE,166,0.0,0.0,84,0.00,,,0.00,WeatherCatV1.02B3,2013-03-09 02:41:00,
2013-03-08 21:46:00,27.3,23.4,29.89,SSE,166,0.0,0.0,85,0.00,,,0.00,WeatherCatV1.02B3,2013-03-09 02:46:00,
2013-03-08 21:51:00,26.8,22.9,29.89,SSE,167,0.0,0.0,85,0.00,,,0.00,WeatherCatV1.02B3,2013-03-09 02:51:00,
2013-03-08 21:56:00,26.4,23.1,29.89,SSE,167,0.0,0.0,87,0.00,,,0.00,WeatherCatV1.02B3,2013-03-09 02:56:00,
2013-03-08 22:01:00,26.1,22.8,29.89,SSE,166,0.0,0.0,87,0.00,,,0.00,WeatherCatV1.02B3,2013-03-09 03:01:00,
2013-03-08 22:06:00,26.1,23.0,29.89,SSE,167,0.0,0.0,88,0.00,,,0.00,WeatherCatV1.02B3,2013-03-09 03:06:00,
2013-03-08 22:11:00,25.8,22.5,29.89,SSE,166,0.0,0.0,87,0.00,,,0.00,WeatherCatV1.02B3,2013-03-09 03:11:00,
2013-03-08 22:16:00,25.5,22.5,29.89,SSE,166,0.0,0.0,88,0.00,,,0.00,WeatherCatV1.02B3,2013-03-09 03:16:00,
2013-03-08 22:21:00,26.4,23.6,29.89,SSE,167,0.0,0.0,89,0.00,,,0.00,WeatherCatV1.02B3,2013-03-09 03:21:00,
2013-03-08 22:26:00,27.1,23.8,29.89,SSE,166,0.0,0.0,87,0.00,,,0.00,WeatherCatV1.02B3,2013-03-09 03:26:00,
2013-03-08 22:31:00,27.1,23.5,29.89,SSE,166,0.0,0.0,86,0.00,,,0.00,WeatherCatV1.02B3,2013-03-09 03:31:00,
2013-03-08 22:36:00,26.7,23.1,29.89,SSE,166,0.0,0.0,86,0.00,,,0.00,WeatherCatV1.02B3,2013-03-09 03:36:00,
2013-03-08 22:41:00,26.5,23.2,29.89,SSE,166,0.0,0.0,87,0.00,,,0.00,WeatherCatV1.02B3,2013-03-09 03:41:00,
2013-03-08 22:46:00,26.5,23.2,29.89,SSE,166,0.0,0.0,87,0.00,,,0.00,WeatherCatV1.02B3,2013-03-09 03:46:00,
2013-03-08 22:51:00,26.1,23.0,29.89,SSE,166,0.0,0.0,88,0.00,,,0.00,WeatherCatV1.02B3,2013-03-09 03:51:00,
2013-03-08 22:56:00,26.0,23.2,29.89,SSE,167,0.0,0.0,89,0.00,,,0.00,WeatherCatV1.02B3,2013-03-09 03:56:00,
2013-03-08 23:01:00,25.8,23.0,29.89,SSE,166,0.0,0.0,89,0.00,,,0.00,WeatherCatV1.02B3,2013-03-09 04:01:00,
2013-03-08 23:06:00,25.8,23.3,29.88,SSE,166,0.0,0.0,90,0.00,,,0.00,WeatherCatV1.02B3,2013-03-09 04:06:00,
2013-03-08 23:11:00,26.2,23.4,29.88,SSE,166,0.0,0.0,89,0.00,,,0.00,WeatherCatV1.02B3,2013-03-09 04:11:00,
2013-03-08 23:16:00,26.1,22.8,29.88,SSE,167,0.0,0.0,87,0.00,,,0.00,WeatherCatV1.02B3,2013-03-09 04:16:00,
2013-03-08 23:21:00,25.6,22.3,29.88,SSE,167,0.0,0.0,87,0.00,,,0.00,WeatherCatV1.02B3,2013-03-09 04:21:00,
2013-03-08 23:26:00,25.1,21.8,29.88,SSE,166,0.0,0.0,87,0.00,,,0.00,WeatherCatV1.02B3,2013-03-09 04:26:00,
2013-03-08 23:31:00,25.0,22.2,29.87,SSE,166,0.0,0.0,89,0.00,,,0.00,WeatherCatV1.02B3,2013-03-09 04:31:00,
2013-03-08 23:36:00,25.0,22.5,29.87,SSE,166,0.0,0.0,90,0.00,,,0.00,WeatherCatV1.02B3,2013-03-09 04:36:00,
2013-03-08 23:41:00,25.1,22.6,29.87,SSE,167,0.0,0.0,90,0.00,,,0.00,WeatherCatV1.02B3,2013-03-09 04:41:00,
2013-03-08 23:46:00,24.9,22.4,29.87,SSE,166,0.0,0.0,90,0.00,,,0.00,WeatherCatV1.02B3,2013-03-09 04:46:00,
2013-03-08 23:51:00,25.0,22.5,29.87,SSE,167,0.0,0.0,90,0.00,,,0.00,WeatherCatV1.02B3,2013-03-09 04:51:00,
2013-03-08 23:56:00,25.2,22.4,29.87,SSE,166,0.0,0.0,89,0.00,,,0.00,WeatherCatV1.02B3,2013-03-09 04:56:00,